Year,Month,Day,Hour,Minute,Value (Times are PST for temperature in C)
2013,04,26,00,00,10.00
2013,04,26,00,01,10.00
2013,04,26,00,02,10.00
2013,04,26,00,03,10.00
2013,04,26,00,04,10.00
2013,04,26,00,05,10.00
2013,04,26,00,06,10.00
2013,04,26,00,07,10.00
2013,04,26,00,08,10.10
2013,04,26,00,09,10.10
2013,04,26,00,10,10.10
2013,04,26,00,11,10.10
2013,04,26,00,12,10.10
2013,04,26,00,13,10.10
2013,04,26,00,14,10.10
2013,04,26,00,15,10.00
2013,04,26,00,16,10.00
2013,04,26,00,17,10.00
2013,04,26,00,18,10.00
2013,04,26,00,19,9.90
2013,04,26,00,20,9.90
2013,04,26,00,21,9.90
2013,04,26,00,22,9.90
2013,04,26,00,23,9.80
2013,04,26,00,24,9.80
2013,04,26,00,25,9.80
2013,04,26,00,26,9.80
2013,04,26,00,27,9.70
2013,04,26,00,28,9.70
2013,04,26,00,29,9.70
2013,04,26,00,30,9.60
2013,04,26,00,31,9.60
2013,04,26,00,32,9.60
2013,04,26,00,33,9.60
2013,04,26,00,34,9.60
2013,04,26,00,35,9.60
2013,04,26,00,36,9.50
2013,04,26,00,37,9.50
2013,04,26,00,38,9.50
2013,04,26,00,39,9.50
2013,04,26,00,40,9.50
2013,04,26,00,41,9.60
2013,04,26,00,42,9.60
2013,04,26,00,43,9.60
2013,04,26,00,44,9.60
2013,04,26,00,45,9.60
2013,04,26,00,46,9.70
2013,04,26,00,47,9.70
2013,04,26,00,48,9.70
2013,04,26,00,49,9.70
2013,04,26,00,50,9.70
2013,04,26,00,51,9.70
2013,04,26,00,52,9.60
2013,04,26,00,53,9.60
2013,04,26,00,54,9.60
2013,04,26,00,55,9.60
2013,04,26,00,56,9.60
2013,04,26,00,57,9.60
2013,04,26,00,58,9.60
2013,04,26,00,59,9.60
2013,04,26,01,00,9.50
2013,04,26,01,01,9.50
2013,04,26,01,02,9.40
2013,04,26,01,03,9.40
2013,04,26,01,04,9.40
2013,04,26,01,05,9.40
2013,04,26,01,06,9.30
2013,04,26,01,07,9.30
2013,04,26,01,08,9.30
2013,04,26,01,09,9.30
2013,04,26,01,10,9.30
2013,04,26,01,11,9.30
2013,04,26,01,12,9.30
2013,04,26,01,13,9.40
2013,04,26,01,14,9.40
2013,04,26,01,15,9.40
2013,04,26,01,16,9.40
2013,04,26,01,17,9.40
2013,04,26,01,18,9.40
2013,04,26,01,19,9.40
2013,04,26,01,20,9.30
2013,04,26,01,21,9.30
2013,04,26,01,22,9.30
2013,04,26,01,23,9.20
2013,04,26,01,24,9.20
2013,04,26,01,25,9.20
2013,04,26,01,26,9.10
2013,04,26,01,27,9.10
2013,04,26,01,28,9.10
2013,04,26,01,29,9.10
2013,04,26,01,30,9.10
2013,04,26,01,31,9.00
2013,04,26,01,32,9.00
2013,04,26,01,33,9.00
2013,04,26,01,34,8.90
2013,04,26,01,35,8.90
2013,04,26,01,36,8.90
2013,04,26,01,37,8.90
2013,04,26,01,38,8.80
2013,04,26,01,39,8.80
2013,04,26,01,40,8.80
2013,04,26,01,41,8.70
2013,04,26,01,42,8.70
2013,04,26,01,43,8.70
2013,04,26,01,44,8.70
2013,04,26,01,45,8.80
2013,04,26,01,46,8.80
2013,04,26,01,47,8.80
2013,04,26,01,48,8.80
2013,04,26,01,49,8.70
2013,04,26,01,50,8.70
2013,04,26,01,51,8.70
2013,04,26,01,52,8.80
2013,04,26,01,53,8.80
2013,04,26,01,54,8.80
2013,04,26,01,55,8.90
2013,04,26,01,56,8.90
2013,04,26,01,57,9.00
2013,04,26,01,58,9.00
2013,04,26,01,59,9.00
2013,04,26,02,00,9.00
2013,04,26,02,01,9.00
2013,04,26,02,02,9.00
2013,04,26,02,03,9.00
2013,04,26,02,04,9.00
2013,04,26,02,05,9.00
2013,04,26,02,06,9.00
2013,04,26,02,07,9.00
2013,04,26,02,08,9.00
2013,04,26,02,09,8.90
2013,04,26,02,10,8.90
2013,04,26,02,11,8.80
2013,04,26,02,12,8.70
2013,04,26,02,13,8.60
2013,04,26,02,14,8.50
2013,04,26,02,15,8.40
2013,04,26,02,16,8.40
2013,04,26,02,17,8.30
2013,04,26,02,18,8.30
2013,04,26,02,19,8.20
2013,04,26,02,20,8.20
2013,04,26,02,21,8.20
2013,04,26,02,22,8.10
2013,04,26,02,23,8.10
2013,04,26,02,24,8.00
2013,04,26,02,25,8.00
2013,04,26,02,26,8.00
2013,04,26,02,27,7.90
2013,04,26,02,28,7.90
2013,04,26,02,29,7.90
2013,04,26,02,30,7.90
2013,04,26,02,31,7.90
2013,04,26,02,32,7.80
2013,04,26,02,33,7.80
2013,04,26,02,34,7.80
2013,04,26,02,35,7.80
2013,04,26,02,36,7.80
2013,04,26,02,37,7.80
2013,04,26,02,38,7.80
2013,04,26,02,39,7.80
2013,04,26,02,40,7.80
2013,04,26,02,41,7.80
2013,04,26,02,42,7.90
2013,04,26,02,43,7.90
2013,04,26,02,44,8.00
2013,04,26,02,45,8.00
2013,04,26,02,46,8.00
2013,04,26,02,47,8.10
2013,04,26,02,48,8.10
2013,04,26,02,49,8.10
2013,04,26,02,50,8.20
2013,04,26,02,51,8.20
2013,04,26,02,52,8.20
2013,04,26,02,53,8.20
2013,04,26,02,54,8.30
2013,04,26,02,55,8.30
2013,04,26,02,56,8.30
2013,04,26,02,57,8.40
2013,04,26,02,58,8.40
2013,04,26,02,59,8.40
2013,04,26,03,00,8.40
2013,04,26,03,01,8.40
2013,04,26,03,02,8.40
2013,04,26,03,03,8.40
2013,04,26,03,04,8.40
2013,04,26,03,05,8.40
2013,04,26,03,06,8.40
2013,04,26,03,07,8.40
2013,04,26,03,08,8.40
2013,04,26,03,09,8.40
2013,04,26,03,10,8.40
2013,04,26,03,11,8.30
2013,04,26,03,12,8.30
2013,04,26,03,13,8.30
2013,04,26,03,14,8.30
2013,04,26,03,15,8.30
2013,04,26,03,16,8.30
2013,04,26,03,17,8.30
2013,04,26,03,18,8.30
2013,04,26,03,19,8.30
2013,04,26,03,20,8.30
2013,04,26,03,21,8.30
2013,04,26,03,22,8.30
2013,04,26,03,23,8.20
2013,04,26,03,24,8.20
2013,04,26,03,25,8.20
2013,04,26,03,26,8.20
2013,04,26,03,27,8.20
2013,04,26,03,28,8.10
2013,04,26,03,29,8.10
2013,04,26,03,30,8.10
2013,04,26,03,31,8.10
2013,04,26,03,32,8.00
2013,04,26,03,33,8.00
2013,04,26,03,34,7.90
2013,04,26,03,35,7.90
2013,04,26,03,36,7.90
2013,04,26,03,37,7.90
2013,04,26,03,38,7.80
2013,04,26,03,39,7.80
2013,04,26,03,40,7.80
2013,04,26,03,41,7.70
2013,04,26,03,42,7.70
2013,04,26,03,43,7.70
2013,04,26,03,44,7.70
2013,04,26,03,45,7.60
2013,04,26,03,46,7.60
2013,04,26,03,47,7.60
2013,04,26,03,48,7.60
2013,04,26,03,49,7.60
2013,04,26,03,50,7.60
2013,04,26,03,51,7.50
2013,04,26,03,52,7.50
2013,04,26,03,53,7.50
2013,04,26,03,54,7.50
2013,04,26,03,55,7.50
2013,04,26,03,56,7.50
2013,04,26,03,57,7.50
2013,04,26,03,58,7.50
2013,04,26,03,59,7.50
2013,04,26,04,00,7.60
2013,04,26,04,01,7.50
2013,04,26,04,02,7.50
2013,04,26,04,03,7.50
2013,04,26,04,04,7.50
2013,04,26,04,05,7.40
2013,04,26,04,06,7.40
2013,04,26,04,07,7.40
2013,04,26,04,08,7.30
2013,04,26,04,09,7.30
2013,04,26,04,10,7.30
2013,04,26,04,11,7.30
2013,04,26,04,12,7.30
2013,04,26,04,13,7.30
2013,04,26,04,14,7.30
2013,04,26,04,15,7.30
2013,04,26,04,16,7.30
2013,04,26,04,17,7.30
2013,04,26,04,18,7.30
2013,04,26,04,19,7.30
2013,04,26,04,20,7.20
2013,04,26,04,21,7.20
2013,04,26,04,22,7.20
2013,04,26,04,23,7.20
2013,04,26,04,24,7.20
2013,04,26,04,25,7.20
2013,04,26,04,26,7.10
2013,04,26,04,27,7.10
2013,04,26,04,28,7.10
2013,04,26,04,29,7.10
2013,04,26,04,30,7.10
2013,04,26,04,31,7.10
2013,04,26,04,32,7.00
2013,04,26,04,33,7.00
2013,04,26,04,34,7.00
2013,04,26,04,35,6.90
2013,04,26,04,36,6.90
2013,04,26,04,37,6.90
2013,04,26,04,38,6.90
2013,04,26,04,39,6.90
2013,04,26,04,40,6.90
2013,04,26,04,41,6.90
2013,04,26,04,42,6.90
2013,04,26,04,43,6.90
2013,04,26,04,44,6.80
2013,04,26,04,45,6.80
2013,04,26,04,46,6.80
2013,04,26,04,47,6.80
2013,04,26,04,48,6.80
2013,04,26,04,49,6.80
2013,04,26,04,50,6.80
2013,04,26,04,51,6.80
2013,04,26,04,52,6.80
2013,04,26,04,53,6.80
2013,04,26,04,54,6.80
2013,04,26,04,55,6.70
2013,04,26,04,56,6.70
2013,04,26,04,57,6.70
2013,04,26,04,58,6.70
2013,04,26,04,59,6.70
2013,04,26,05,00,6.70
2013,04,26,05,01,6.70
2013,04,26,05,02,6.70
2013,04,26,05,03,6.70
2013,04,26,05,04,6.70
2013,04,26,05,05,6.70
2013,04,26,05,06,6.70
2013,04,26,05,07,6.70
2013,04,26,05,08,6.70
2013,04,26,05,09,6.70
2013,04,26,05,10,6.70
2013,04,26,05,11,6.70
2013,04,26,05,12,6.70
2013,04,26,05,13,6.60
2013,04,26,05,14,6.60
2013,04,26,05,15,6.60
2013,04,26,05,16,6.60
2013,04,26,05,17,6.60
2013,04,26,05,18,6.60
2013,04,26,05,19,6.60
2013,04,26,05,20,6.60
2013,04,26,05,21,6.60
2013,04,26,05,22,6.60
2013,04,26,05,23,6.60
2013,04,26,05,24,6.60
2013,04,26,05,25,6.60
2013,04,26,05,26,6.60
2013,04,26,05,27,6.50
2013,04,26,05,28,6.50
2013,04,26,05,29,6.50
2013,04,26,05,30,6.50
2013,04,26,05,31,6.50
2013,04,26,05,32,6.50
2013,04,26,05,33,6.50
2013,04,26,05,34,6.50
2013,04,26,05,35,6.50
2013,04,26,05,36,6.50
2013,04,26,05,37,6.50
2013,04,26,05,38,6.40
2013,04,26,05,39,6.50
2013,04,26,05,40,6.40
2013,04,26,05,41,6.40
2013,04,26,05,42,6.40
2013,04,26,05,43,6.40
2013,04,26,05,44,6.40
2013,04,26,05,45,6.40
2013,04,26,05,46,6.40
2013,04,26,05,47,6.40
2013,04,26,05,48,6.40
2013,04,26,05,49,6.40
2013,04,26,05,50,6.40
2013,04,26,05,51,6.40
2013,04,26,05,52,6.40
2013,04,26,05,53,6.40
2013,04,26,05,54,6.30
2013,04,26,05,55,6.30
2013,04,26,05,56,6.30
2013,04,26,05,57,6.30
2013,04,26,05,58,6.30
2013,04,26,05,59,6.30
2013,04,26,06,00,6.30
2013,04,26,06,01,6.30
2013,04,26,06,02,6.30
2013,04,26,06,03,6.30
2013,04,26,06,04,6.30
2013,04,26,06,05,6.30
2013,04,26,06,06,6.30
2013,04,26,06,07,6.30
2013,04,26,06,08,6.30
2013,04,26,06,09,6.30
2013,04,26,06,10,6.30
2013,04,26,06,11,6.30
2013,04,26,06,12,6.30
2013,04,26,06,13,6.20
2013,04,26,06,14,6.20
2013,04,26,06,15,6.20
2013,04,26,06,16,6.20
2013,04,26,06,17,6.20
2013,04,26,06,18,6.20
2013,04,26,06,19,6.20
2013,04,26,06,20,6.20
2013,04,26,06,21,6.20
2013,04,26,06,22,6.20
2013,04,26,06,23,6.20
2013,04,26,06,24,6.20
2013,04,26,06,25,6.20
2013,04,26,06,26,6.20
2013,04,26,06,27,6.20
2013,04,26,06,28,6.20
2013,04,26,06,29,6.20
2013,04,26,06,30,6.20
2013,04,26,06,31,6.20
2013,04,26,06,32,6.20
2013,04,26,06,33,6.20
2013,04,26,06,34,6.20
2013,04,26,06,35,6.20
2013,04,26,06,36,6.20
2013,04,26,06,37,6.20
2013,04,26,06,38,6.20
2013,04,26,06,39,6.20
2013,04,26,06,40,6.20
2013,04,26,06,41,6.20
2013,04,26,06,42,6.20
2013,04,26,06,43,6.20
2013,04,26,06,44,6.20
2013,04,26,06,45,6.20
2013,04,26,06,46,6.10
2013,04,26,06,47,6.10
2013,04,26,06,48,6.10
2013,04,26,06,49,6.10
2013,04,26,06,50,6.20
2013,04,26,06,51,6.20
2013,04,26,06,52,6.20
2013,04,26,06,53,6.20
2013,04,26,06,54,6.20
2013,04,26,06,55,6.20
2013,04,26,06,56,6.20
2013,04,26,06,57,6.20
2013,04,26,06,58,6.20
2013,04,26,06,59,6.20
2013,04,26,07,00,6.30
2013,04,26,07,01,6.30
2013,04,26,07,02,6.30
2013,04,26,07,03,6.30
2013,04,26,07,04,6.30
2013,04,26,07,05,6.40
2013,04,26,07,06,6.40
2013,04,26,07,07,6.40
2013,04,26,07,08,6.40
2013,04,26,07,09,6.50
2013,04,26,07,10,6.50
2013,04,26,07,11,6.60
2013,04,26,07,12,6.60
2013,04,26,07,13,6.70
2013,04,26,07,14,6.70
2013,04,26,07,15,6.70
2013,04,26,07,16,6.80
2013,04,26,07,17,6.80
2013,04,26,07,18,6.90
2013,04,26,07,19,6.90
2013,04,26,07,20,7.00
2013,04,26,07,21,7.00
2013,04,26,07,22,7.10
2013,04,26,07,23,7.20
2013,04,26,07,24,7.20
2013,04,26,07,25,7.30
2013,04,26,07,26,7.30
2013,04,26,07,27,7.30
2013,04,26,07,28,7.40
2013,04,26,07,29,7.40
2013,04,26,07,30,7.50
2013,04,26,07,31,7.50
2013,04,26,07,32,7.60
2013,04,26,07,33,7.60
2013,04,26,07,34,7.70
2013,04,26,07,35,7.70
2013,04,26,07,36,7.70
2013,04,26,07,37,7.70
2013,04,26,07,38,7.80
2013,04,26,07,39,7.80
2013,04,26,07,40,7.80
2013,04,26,07,41,7.90
2013,04,26,07,42,7.90
2013,04,26,07,43,7.90
2013,04,26,07,44,8.00
2013,04,26,07,45,8.00
2013,04,26,07,46,8.10
2013,04,26,07,47,8.10
2013,04,26,07,48,8.20
2013,04,26,07,49,8.20
2013,04,26,07,50,8.20
2013,04,26,07,51,8.20
2013,04,26,07,52,8.20
2013,04,26,07,53,8.20
2013,04,26,07,54,8.20
2013,04,26,07,55,8.20
2013,04,26,07,56,8.20
2013,04,26,07,57,8.30
2013,04,26,07,58,8.30
2013,04,26,07,59,8.30
2013,04,26,08,00,8.40
2013,04,26,08,01,8.40
2013,04,26,08,02,8.50
2013,04,26,08,03,8.60
2013,04,26,08,04,8.60
2013,04,26,08,05,8.70
2013,04,26,08,06,8.70
2013,04,26,08,07,8.80
2013,04,26,08,08,8.80
2013,04,26,08,09,8.90
2013,04,26,08,10,8.90
2013,04,26,08,11,9.00
2013,04,26,08,12,9.10
2013,04,26,08,13,9.10
2013,04,26,08,14,9.20
2013,04,26,08,15,9.20
2013,04,26,08,16,9.30
2013,04,26,08,17,9.30
2013,04,26,08,18,9.30
2013,04,26,08,19,9.30
2013,04,26,08,20,9.40
2013,04,26,08,21,9.40
2013,04,26,08,22,9.50
2013,04,26,08,23,9.50
2013,04,26,08,24,9.60
2013,04,26,08,25,9.70
2013,04,26,08,26,9.70
2013,04,26,08,27,9.80
2013,04,26,08,28,9.90
2013,04,26,08,29,10.00
2013,04,26,08,30,10.10
2013,04,26,08,31,10.10
2013,04,26,08,32,10.20
2013,04,26,08,33,10.20
2013,04,26,08,34,10.30
2013,04,26,08,35,10.30
2013,04,26,08,36,10.40
2013,04,26,08,37,10.50
2013,04,26,08,38,10.50
2013,04,26,08,39,10.60
2013,04,26,08,40,10.70
2013,04,26,08,41,10.70
2013,04,26,08,42,10.80
2013,04,26,08,43,10.80
2013,04,26,08,44,10.80
2013,04,26,08,45,10.90
2013,04,26,08,46,10.90
2013,04,26,08,47,10.90
2013,04,26,08,48,11.00
2013,04,26,08,49,11.10
2013,04,26,08,50,11.10
2013,04,26,08,51,11.20
2013,04,26,08,52,11.20
2013,04,26,08,53,11.30
2013,04,26,08,54,11.30
2013,04,26,08,55,11.40
2013,04,26,08,56,11.50
2013,04,26,08,57,11.50
2013,04,26,08,58,11.60
2013,04,26,08,59,11.70
2013,04,26,09,00,11.80
2013,04,26,09,01,11.80
2013,04,26,09,02,11.90
2013,04,26,09,03,12.00
2013,04,26,09,04,12.00
2013,04,26,09,05,12.20
2013,04,26,09,06,12.30
2013,04,26,09,07,12.40
2013,04,26,09,08,12.50
2013,04,26,09,09,12.60
2013,04,26,09,10,12.70
2013,04,26,09,11,12.80
2013,04,26,09,12,12.90
2013,04,26,09,13,12.90
2013,04,26,09,14,12.90
2013,04,26,09,15,12.80
2013,04,26,09,16,12.80
2013,04,26,09,17,12.80
2013,04,26,09,18,12.80
2013,04,26,09,19,12.70
2013,04,26,09,20,12.70
2013,04,26,09,21,12.60
2013,04,26,09,22,12.60
2013,04,26,09,23,12.60
2013,04,26,09,24,12.60
2013,04,26,09,25,12.50
2013,04,26,09,26,12.50
2013,04,26,09,27,12.50
2013,04,26,09,28,12.50
2013,04,26,09,29,12.50
2013,04,26,09,30,12.50
2013,04,26,09,31,12.50
2013,04,26,09,32,12.60
2013,04,26,09,33,12.60
2013,04,26,09,34,12.60
2013,04,26,09,35,12.60
2013,04,26,09,36,12.60
2013,04,26,09,37,12.70
2013,04,26,09,38,12.70
2013,04,26,09,39,12.80
2013,04,26,09,40,12.80
2013,04,26,09,41,12.90
2013,04,26,09,42,12.90
2013,04,26,09,43,13.00
2013,04,26,09,44,13.10
2013,04,26,09,45,13.10
2013,04,26,09,46,13.20
2013,04,26,09,47,13.20
2013,04,26,09,48,13.20
2013,04,26,09,49,13.30
2013,04,26,09,50,13.30
2013,04,26,09,51,13.30
2013,04,26,09,52,13.30
2013,04,26,09,53,13.30
2013,04,26,09,54,13.40
2013,04,26,09,55,13.40
2013,04,26,09,56,13.40
2013,04,26,09,57,13.40
2013,04,26,09,58,13.50
2013,04,26,09,59,13.60
2013,04,26,10,00,13.60
2013,04,26,10,01,13.60
2013,04,26,10,02,13.60
2013,04,26,10,03,13.60
2013,04,26,10,04,13.60
2013,04,26,10,05,13.60
2013,04,26,10,06,13.60
2013,04,26,10,07,13.50
2013,04,26,10,08,13.50
2013,04,26,10,09,13.50
2013,04,26,10,10,13.40
2013,04,26,10,11,13.30
2013,04,26,10,12,13.30
2013,04,26,10,13,13.30
2013,04,26,10,14,13.30
2013,04,26,10,15,13.30
2013,04,26,10,16,13.30
2013,04,26,10,17,13.30
2013,04,26,10,18,13.30
2013,04,26,10,19,13.30
2013,04,26,10,20,13.20
2013,04,26,10,21,13.20
2013,04,26,10,22,13.20
2013,04,26,10,23,13.10
2013,04,26,10,24,13.10
2013,04,26,10,25,13.10
2013,04,26,10,26,13.00
2013,04,26,10,27,13.00
2013,04,26,10,28,13.00
2013,04,26,10,29,13.00
2013,04,26,10,30,13.00
2013,04,26,10,31,13.10
2013,04,26,10,32,13.10
2013,04,26,10,33,13.10
2013,04,26,10,34,13.10
2013,04,26,10,35,13.10
2013,04,26,10,36,13.10
2013,04,26,10,37,13.10
2013,04,26,10,38,13.10
2013,04,26,10,39,13.10
2013,04,26,10,40,13.10
2013,04,26,10,41,13.10
2013,04,26,10,42,13.10
2013,04,26,10,43,13.10
2013,04,26,10,44,13.00
2013,04,26,10,45,13.00
2013,04,26,10,46,12.90
2013,04,26,10,47,12.90
2013,04,26,10,48,12.80
2013,04,26,10,49,12.80
2013,04,26,10,50,12.70
2013,04,26,10,51,12.60
2013,04,26,10,52,12.60
2013,04,26,10,53,12.60
2013,04,26,10,54,12.60
2013,04,26,10,55,12.60
2013,04,26,10,56,12.60
2013,04,26,10,57,12.60
2013,04,26,10,58,12.60
2013,04,26,10,59,12.60
2013,04,26,11,00,12.70
2013,04,26,11,01,12.70
2013,04,26,11,02,12.70
2013,04,26,11,03,12.70
2013,04,26,11,04,12.70
2013,04,26,11,05,12.70
2013,04,26,11,06,12.70
2013,04,26,11,07,12.70
2013,04,26,11,08,12.70
2013,04,26,11,09,12.70
2013,04,26,11,10,12.70
2013,04,26,11,11,12.70
2013,04,26,11,12,12.70
2013,04,26,11,13,12.70
2013,04,26,11,14,12.70
2013,04,26,11,15,12.70
2013,04,26,11,16,12.70
2013,04,26,11,17,12.70
2013,04,26,11,18,12.80
2013,04,26,11,19,12.80
2013,04,26,11,20,12.80
2013,04,26,11,21,12.80
2013,04,26,11,22,12.80
2013,04,26,11,23,12.80
2013,04,26,11,24,12.80
2013,04,26,11,25,12.90
2013,04,26,11,26,12.90
2013,04,26,11,27,12.90
2013,04,26,11,28,12.90
2013,04,26,11,29,12.90
2013,04,26,11,30,12.90
2013,04,26,11,31,12.90
2013,04,26,11,32,12.90
2013,04,26,11,33,12.90
2013,04,26,11,34,12.90
2013,04,26,11,35,12.80
2013,04,26,11,36,12.80
2013,04,26,11,37,12.80
2013,04,26,11,38,12.80
2013,04,26,11,39,12.80
2013,04,26,11,40,12.80
2013,04,26,11,41,12.80
2013,04,26,11,42,12.80
2013,04,26,11,43,12.80
2013,04,26,11,44,12.90
2013,04,26,11,45,12.90
2013,04,26,11,46,12.90
2013,04,26,11,47,13.00
2013,04,26,11,48,13.00
2013,04,26,11,49,13.00
2013,04,26,11,50,13.10
2013,04,26,11,51,13.10
2013,04,26,11,52,13.10
2013,04,26,11,53,13.10
2013,04,26,11,54,13.10
2013,04,26,11,55,13.10
2013,04,26,11,56,13.10
2013,04,26,11,57,13.00
2013,04,26,11,58,13.00
2013,04,26,11,59,13.10
2013,04,26,12,00,13.10
2013,04,26,12,01,13.10
2013,04,26,12,02,13.10
2013,04,26,12,03,13.20
2013,04,26,12,04,13.20
2013,04,26,12,05,13.30
2013,04,26,12,06,13.30
2013,04,26,12,07,13.30
2013,04,26,12,08,13.30
2013,04,26,12,09,13.30
2013,04,26,12,10,13.30
2013,04,26,12,11,13.30
2013,04,26,12,12,13.40
2013,04,26,12,13,13.40
2013,04,26,12,14,13.40
2013,04,26,12,15,13.40
2013,04,26,12,16,13.40
2013,04,26,12,17,13.30
2013,04,26,12,18,13.30
2013,04,26,12,19,13.20
2013,04,26,12,20,13.20
2013,04,26,12,21,13.20
2013,04,26,12,22,13.20
2013,04,26,12,23,13.20
2013,04,26,12,24,13.20
2013,04,26,12,25,13.20
2013,04,26,12,26,13.20
2013,04,26,12,27,13.30
2013,04,26,12,28,13.30
2013,04,26,12,29,13.30
2013,04,26,12,30,13.30
2013,04,26,12,31,13.30
2013,04,26,12,32,13.30
2013,04,26,12,33,13.20
2013,04,26,12,34,13.20
2013,04,26,12,35,13.20
2013,04,26,12,36,13.20
2013,04,26,12,37,13.20
2013,04,26,12,38,13.20
2013,04,26,12,39,13.10
2013,04,26,12,40,13.10
2013,04,26,12,41,13.10
2013,04,26,12,42,13.20
2013,04,26,12,43,13.20
2013,04,26,12,44,13.20
2013,04,26,12,45,13.20
2013,04,26,12,46,13.20
2013,04,26,12,47,13.20
2013,04,26,12,48,13.20
2013,04,26,12,49,13.20
2013,04,26,12,50,13.20
2013,04,26,12,51,13.20
2013,04,26,12,52,13.30
2013,04,26,12,53,13.30
2013,04,26,12,54,13.30
2013,04,26,12,55,13.30
2013,04,26,12,56,13.30
2013,04,26,12,57,13.30
2013,04,26,12,58,13.30
2013,04,26,12,59,13.30
2013,04,26,13,00,13.30
2013,04,26,13,01,13.30
2013,04,26,13,02,13.30
2013,04,26,13,03,13.40
2013,04,26,13,04,13.40
2013,04,26,13,05,13.50
2013,04,26,13,06,13.50
2013,04,26,13,07,13.50
2013,04,26,13,08,13.50
2013,04,26,13,09,13.60
2013,04,26,13,10,13.60
2013,04,26,13,11,13.60
2013,04,26,13,12,13.60
2013,04,26,13,13,13.60
2013,04,26,13,14,13.60
2013,04,26,13,15,13.60
2013,04,26,13,16,13.70
2013,04,26,13,17,13.70
2013,04,26,13,18,13.70
2013,04,26,13,19,13.80
2013,04,26,13,20,13.80
2013,04,26,13,21,13.90
2013,04,26,13,22,13.90
2013,04,26,13,23,13.90
2013,04,26,13,24,14.00
2013,04,26,13,25,14.00
2013,04,26,13,26,14.00
2013,04,26,13,27,14.10
2013,04,26,13,28,14.10
2013,04,26,13,29,14.10
2013,04,26,13,30,14.20
2013,04,26,13,31,14.20
2013,04,26,13,32,14.10
2013,04,26,13,33,14.00
2013,04,26,13,34,14.00
2013,04,26,13,35,14.00
2013,04,26,13,36,14.00
2013,04,26,13,37,14.00
2013,04,26,13,38,14.00
2013,04,26,13,39,14.00
2013,04,26,13,40,14.10
2013,04,26,13,41,14.10
2013,04,26,13,42,14.10
2013,04,26,13,43,14.20
2013,04,26,13,44,14.20
2013,04,26,13,45,14.10
2013,04,26,13,46,14.10
2013,04,26,13,47,14.10
2013,04,26,13,48,14.00
2013,04,26,13,49,14.00
2013,04,26,13,50,13.90
2013,04,26,13,51,13.90
2013,04,26,13,52,13.90
2013,04,26,13,53,13.90
2013,04,26,13,54,13.90
2013,04,26,13,55,13.90
2013,04,26,13,56,14.00
2013,04,26,13,57,14.00
2013,04,26,13,58,14.00
2013,04,26,13,59,14.00
2013,04,26,14,00,14.10
2013,04,26,14,01,14.10
2013,04,26,14,02,14.10
2013,04,26,14,03,14.20
2013,04,26,14,04,14.20
2013,04,26,14,05,14.20
2013,04,26,14,06,14.20
2013,04,26,14,07,14.20
2013,04,26,14,08,14.20
2013,04,26,14,09,14.20
2013,04,26,14,10,14.20
2013,04,26,14,11,14.20
2013,04,26,14,12,14.30
2013,04,26,14,13,14.30
2013,04,26,14,14,14.30
2013,04,26,14,15,14.30
2013,04,26,14,16,14.40
2013,04,26,14,17,14.40
2013,04,26,14,18,14.40
2013,04,26,14,19,14.40
2013,04,26,14,20,14.50
2013,04,26,14,21,14.50
2013,04,26,14,22,14.50
2013,04,26,14,23,14.60
2013,04,26,14,24,14.60
2013,04,26,14,25,14.50
2013,04,26,14,26,14.50
2013,04,26,14,27,14.50
2013,04,26,14,28,14.50
2013,04,26,14,29,14.50
2013,04,26,14,30,14.50
2013,04,26,14,31,14.60
2013,04,26,14,32,14.60
2013,04,26,14,33,14.60
2013,04,26,14,34,14.70
2013,04,26,14,35,14.70
2013,04,26,14,36,14.60
2013,04,26,14,37,14.70
2013,04,26,14,38,14.70
2013,04,26,14,39,14.70
2013,04,26,14,40,14.70
2013,04,26,14,41,14.80
2013,04,26,14,42,14.80
2013,04,26,14,43,14.90
2013,04,26,14,44,14.90
2013,04,26,14,45,15.00
2013,04,26,14,46,15.00
2013,04,26,14,47,15.10
2013,04,26,14,48,15.10
2013,04,26,14,49,15.20
2013,04,26,14,50,15.20
2013,04,26,14,51,15.20
2013,04,26,14,52,15.20
2013,04,26,14,53,15.20
2013,04,26,14,54,15.30
2013,04,26,14,55,15.30
2013,04,26,14,56,15.40
2013,04,26,14,57,15.40
2013,04,26,14,58,15.40
2013,04,26,14,59,15.50
2013,04,26,15,00,15.50
2013,04,26,15,01,15.60
2013,04,26,15,02,15.60
2013,04,26,15,03,15.60
2013,04,26,15,04,15.60
2013,04,26,15,05,15.50
2013,04,26,15,06,15.50
2013,04,26,15,07,15.50
2013,04,26,15,08,15.50
2013,04,26,15,09,15.60
2013,04,26,15,10,15.60
2013,04,26,15,11,15.60
2013,04,26,15,12,15.60
2013,04,26,15,13,15.70
2013,04,26,15,14,15.70
2013,04,26,15,15,15.70
2013,04,26,15,16,15.70
2013,04,26,15,17,15.80
2013,04,26,15,18,15.80
2013,04,26,15,19,15.80
2013,04,26,15,20,15.80
2013,04,26,15,21,15.80
2013,04,26,15,22,15.80
2013,04,26,15,23,15.90
2013,04,26,15,24,15.90
2013,04,26,15,25,16.00
2013,04,26,15,26,16.00
2013,04,26,15,27,16.10
2013,04,26,15,28,16.10
2013,04,26,15,29,16.20
2013,04,26,15,30,16.20
2013,04,26,15,31,16.20
2013,04,26,15,32,16.20
2013,04,26,15,33,16.20
2013,04,26,15,34,16.30
2013,04,26,15,35,16.30
2013,04,26,15,36,16.30
2013,04,26,15,37,16.30
2013,04,26,15,38,16.30
2013,04,26,15,39,16.30
2013,04,26,15,40,16.40
2013,04,26,15,41,16.40
2013,04,26,15,42,16.50
2013,04,26,15,43,16.60
2013,04,26,15,44,16.60
2013,04,26,15,45,16.70
2013,04,26,15,46,16.70
2013,04,26,15,47,16.80
2013,04,26,15,48,16.80
2013,04,26,15,49,16.80
2013,04,26,15,50,16.80
2013,04,26,15,51,16.90
2013,04,26,15,52,16.90
2013,04,26,15,53,16.90
2013,04,26,15,54,16.90
2013,04,26,15,55,16.90
2013,04,26,15,56,16.90
2013,04,26,15,57,16.90
2013,04,26,15,58,16.90
2013,04,26,15,59,16.90
2013,04,26,16,00,16.90
2013,04,26,16,01,16.90
2013,04,26,16,02,17.00
2013,04,26,16,03,17.00
2013,04,26,16,04,17.10
2013,04,26,16,05,17.10
2013,04,26,16,06,17.20
2013,04,26,16,07,17.20
2013,04,26,16,08,17.30
2013,04,26,16,09,17.30
2013,04,26,16,10,17.40
2013,04,26,16,11,17.60
2013,04,26,16,12,17.70
2013,04,26,16,13,17.80
2013,04,26,16,14,17.90
2013,04,26,16,15,17.90
2013,04,26,16,16,18.00
2013,04,26,16,17,18.10
2013,04,26,16,18,18.30
2013,04,26,16,19,18.50
2013,04,26,16,20,18.60
2013,04,26,16,21,18.80
2013,04,26,16,22,18.90
2013,04,26,16,23,19.00
2013,04,26,16,24,19.10
2013,04,26,16,25,19.20
2013,04,26,16,26,19.20
2013,04,26,16,27,19.30
2013,04,26,16,28,19.30
2013,04,26,16,29,19.30
2013,04,26,16,30,19.30
2013,04,26,16,31,19.40
2013,04,26,16,32,19.40
2013,04,26,16,33,19.40
2013,04,26,16,34,19.40
2013,04,26,16,35,19.50
2013,04,26,16,36,19.50
2013,04,26,16,37,19.40
2013,04,26,16,38,19.40
2013,04,26,16,39,19.40
2013,04,26,16,40,19.30
2013,04,26,16,41,19.30
2013,04,26,16,42,19.30
2013,04,26,16,43,19.30
2013,04,26,16,44,19.30
2013,04,26,16,45,19.30
2013,04,26,16,46,19.30
2013,04,26,16,47,19.30
2013,04,26,16,48,19.20
2013,04,26,16,49,19.20
2013,04,26,16,50,19.10
2013,04,26,16,51,19.00
2013,04,26,16,52,19.00
2013,04,26,16,53,18.90
2013,04,26,16,54,18.90
2013,04,26,16,55,18.90
2013,04,26,16,56,18.80
2013,04,26,16,57,18.80
2013,04,26,16,58,18.80
2013,04,26,16,59,18.80
2013,04,26,17,00,18.90
2013,04,26,17,01,18.90
2013,04,26,17,02,18.90
2013,04,26,17,03,18.90
2013,04,26,17,04,18.80
2013,04,26,17,05,18.90
2013,04,26,17,06,18.90
2013,04,26,17,07,18.90
2013,04,26,17,08,18.90
2013,04,26,17,09,18.90
2013,04,26,17,10,18.80
2013,04,26,17,11,18.80
2013,04,26,17,12,18.80
2013,04,26,17,13,18.80
2013,04,26,17,14,18.80
2013,04,26,17,15,18.80
2013,04,26,17,16,18.80
2013,04,26,17,17,18.80
2013,04,26,17,18,18.80
2013,04,26,17,19,18.70
2013,04,26,17,20,18.70
2013,04,26,17,21,18.70
2013,04,26,17,22,18.60
2013,04,26,17,23,18.60
2013,04,26,17,24,18.60
2013,04,26,17,25,18.60
2013,04,26,17,26,18.50
2013,04,26,17,27,18.50
2013,04,26,17,28,18.40
2013,04,26,17,29,18.40
2013,04,26,17,30,18.30
2013,04,26,17,31,18.30
2013,04,26,17,32,18.20
2013,04,26,17,33,18.20
2013,04,26,17,34,18.10
2013,04,26,17,35,18.10
2013,04,26,17,36,18.10
2013,04,26,17,37,18.00
2013,04,26,17,38,18.00
2013,04,26,17,39,18.00
2013,04,26,17,40,18.00